Simultaneous Nadir Overpasses (SNOs) Predictions

Prediction of SNOs between FY3D and AQUA Satellite Orbit:

Table of predicted SNOs for the next 14.0 days since TLE Epoch: 12/18/2021
Index Date (FY3D) Time (FY3D) Lat,Lon (FY3D) SZA (FY3D ) Date (AQUA) Time (AQUA) Lat,Lon (AQUA) SZA (AQUA ) Distance(km) Time Diff (sec)
1 12/19/2021 18:17:24 -72.15, 82.98 84.52 12/19/2021 18:17:48 -72.15, 83.04 84.53 2.07 24
2 12/19/2021 19:07:07 68.82,-104.29 92.16 12/19/2021 19:06:15 68.83,-104.35 92.16 2.54 52
3 12/22/2021 09:44:34 72.10, 31.31 95.45 12/22/2021 09:44:53 72.09, 31.37 95.44 2.29 19
4 12/22/2021 10:34:24 -69.23,-156.64 87.43 12/22/2021 10:33:26 -69.23,-156.63 87.44 0.31 58
5 12/25/2021 01:11:32 -71.55, -19.44 85.15 12/25/2021 01:11:46 -71.56, -19.48 85.15 1.40 14
6 12/25/2021 02:01:31 69.06, 151.82 92.36 12/25/2021 02:00:28 69.07, 151.82 92.35 0.15 63
7 12/27/2021 16:38:39 71.36, -70.87 94.56 12/27/2021 16:38:48 71.37, -70.93 94.57 2.40 9
8 12/27/2021 17:28:41 -69.10, 100.01 87.72 12/27/2021 17:27:32 -69.09, 100.03 87.72 0.77 69
9 12/30/2021 07:20:32 80.81, -12.22 111.67 12/30/2021 07:21:45 81.44, -13.51 111.94 73.97 73
10 12/30/2021 08:05:46 -71.22,-122.40 85.74 12/30/2021 08:05:49 -71.23,-122.46 85.73 2.59 3



Historial Predications of SNOs between FY3D and AQUA
